Location: Balagbag Mahabang Kahoy
(14.1562°N, 120.9200°E)
Time: 06:09:59
(UTC+00:00)

Okean 2 - Pass Details

Date: 16 January 2026
Orbit: 515 x 525 km, 82.5° (Epoch: 14 February)

Event Time Altitude Azimuth Distance (km) Brightness Sun altitude
Rises 21:46:04 0° 347° (NNW) 2,621 6.5 -9.6°
Reaches altitude 10° 21:48:14 10° 341° (NNW) 1,735 5.5 -9.1°
Maximum altitude 21:51:53 46° 267° (W) 697 3.5 -8.3°
Drops below altitude 10° 21:55:33 10° 193° (SSW) 1,737 6.0 -7.4°
Sets 21:57:44 0° 187° (S) 2,625 7.0 -6.9°
